[[{"header":{"parameterUnit":"m.s-1","parameterCategory":1,"la1":30.2991,"la2":30.254,"lo1":-89.0895,"lo2":-89.0444,"dy":0.0017,"dx":0.0017,"nx":28,"ny":28,"refTime":"2024-02-03T09:00:00:Z","depth":0,"parameterNumber":2,"parameterNumberName":"U-component_of_WINDS"},"data":[0,0,0,0,0,0,0,0,0,0,0,0,0,0,0,0,0,0,0,0,0,0,0,0,0,0,0,0,0,0,0,0,0,0,0,0,0,0,0,0,0,0,0,0,0,0,0,0,0,0,0,0,0,0,0,0,0,0,3.557,3.5571,0,3.5707,3.5709,3.5711,3.5662,3.5659,3.5656,3.5653,3.5796,3.5803,3.5809,0,0,0,0,0,0,0,0,0,0,0,0,0,3.5266,3.5271,3.5569,3.5571,3.5573,3.5707,3.5709,3.5711,3.5662,3.5658,3.5655,3.5651,3.5794,3.5802,3.581,0,0,0,0,0,0,0,0,0,0,0,0,0,3.54,3.5273,3.5569,3.5565,3.5566,3.5707,3.5709,3.5712,3.5663,3.5658,3.5654,3.5649,3.5791,3.5801,3.5811,3.5966,0,0,3.5842,3.5846,0,0,0,0,0,0,0,0,3.5392,3.5411,3.5564,3.5565,3.5567,3.5663,3.5655,3.5797,3.5664,3.5626,3.5653,3.5647,3.5756,3.5768,3.5804,3.5972,3.5978,3.5843,3.5849,3.5853,3.5856,0,0,0,0,0,0,0,3.5383,3.5405,3.5624,3.5566,3.5568,3.5556,3.557,3.5681,3.5715,3.5629,3.5626,3.5643,3.5756,3.5795,3.5807,3.5981,3.5842,3.5851,3.5857,3.5861,3.6283,3.6288,0,0,0,0,0,0,3.5373,3.5398,3.562,3.5628,3.5466,3.5566,3.5581,3.5636,3.5714,3.5721,3.5647,3.564,3.578,3.5796,3.5812,3.5999,3.5853,3.5862,3.5868,3.6278,3.6284,3.629,0,0,0,0,0,0,3.5367,3.5393,3.5614,3.5512,3.5539,3.5576,3.5638,3.5642,3.5681,3.5727,3.5733,3.568,3.5777,3.5798,3.5928,3.6004,3.5867,3.5876,3.6272,3.628,3.6287,3.6374,0,0,0,0,0,0,3.5358,3.5391,3.545,3.5514,3.5545,3.5727,3.5643,3.5648,3.5698,3.5691,3.576,3.5767,3.5775,3.5913,3.5938,3.6015,3.5884,3.6265,3.6275,3.6285,3.6365,3.6384,3.64,0,0,0,0,0,3.5347,3.5469,3.5453,3.548,3.5619,3.5732,3.5749,3.5755,3.5704,3.5764,3.5794,3.5765,3.5991,3.5927,3.5954,3.6035,3.6261,3.6273,3.6284,3.6357,3.638,3.64,0,0,0,0,0,0,3.5414,3.5477,3.546,3.5606,3.5664,3.5723,3.5799,3.5779,3.5853,3.5843,3.5848,3.5864,3.5998,3.6029,3.5957,3.619,3.6118,3.6136,3.6164,3.6187,3.6204,3.6195,3.5892,0,0,0,0,0,3.5445,3.5531,3.5582,3.5706,3.5735,3.5762,3.5811,3.581,3.5871,3.5895,3.5934,3.5994,3.6078,3.6134,3.6214,3.6368,3.6383,3.6438,3.6455,3.647,3.6486,3.657,3.6596,3.6328,3.6328,3.6328,0,0,3.5512,3.5557,3.5611,3.572,3.5765,3.5854,3.5783,3.588,3.5947,3.591,3.6035,3.6066,3.6133,3.6276,3.6341,3.6307,3.6563,3.6485,3.6496,3.6504,3.6585,3.661,3.6633,3.6336,3.6335,3.6333,0,0,3.5678,3.572,3.5829,3.5875,3.5943,3.596,3.5986,3.6048,3.6067,3.6192,3.6167,3.6246,3.6391,3.6441,3.6485,3.667,3.6647,3.6696,3.679,3.6872,3.6893,3.6912,3.6979,3.7003,3.6711,3.6711,3.6711,0,3.5752,3.5885,3.5887,3.5987,3.6036,3.6006,3.6116,3.6161,3.6252,3.6287,3.6247,3.6429,3.6472,3.6626,3.6672,3.6708,3.6739,3.6689,3.689,3.6909,3.6926,3.699,3.7016,3.6717,3.6716,3.6716,3.6715,0,3.5974,3.6066,3.6145,3.6234,3.6292,3.6396,3.6415,3.6474,3.6468,3.6489,3.6618,3.6668,3.6758,3.6794,3.679,3.6949,3.6925,3.6888,3.6817,3.6957,3.7018,3.7042,3.6725,3.6723,3.6721,3.672,0,0,3.6187,3.6275,3.6304,3.6344,3.6417,3.6489,3.6592,3.668,3.6731,3.6794,3.6882,3.7005,3.6971,3.7021,3.7021,3.7094,3.7239,3.7047,3.7049,3.7082,3.7418,3.7447,3.7475,3.7223,3.7228,3.7231,3.7413,0,3.6361,3.6542,3.6546,3.6712,3.6799,3.6771,3.6861,3.6916,3.6939,3.7015,3.704,3.7128,3.7076,3.7106,3.7176,3.7206,3.7306,3.7193,3.7306,3.731,3.7291,3.7507,3.7537,3.7706,3.7436,3.744,3.7443,0,3.6588,3.6658,3.6833,3.6893,3.693,3.7011,3.7092,3.7165,3.7227,3.7238,3.7294,3.7284,3.739,3.7314,3.7462,3.7384,3.7431,3.7452,3.7459,3.7471,3.7386,3.7525,3.776,3.7786,3.748,3.7477,3.7474,0,3.6727,3.6866,3.6989,3.7023,3.7097,3.7155,3.7188,3.7245,3.7298,3.7369,3.7403,3.7485,3.7531,3.7595,3.7608,3.7551,3.7756,3.7681,3.7769,3.7769,3.7814,3.7812,3.8061,3.7843,3.7842,3.7842,3.7841,0,3.6922,3.703,3.7052,3.7128,3.7249,3.7253,3.7373,3.7402,3.7453,3.7534,3.7515,3.7592,3.7603,3.7683,3.7693,3.7814,3.7834,3.7847,3.7849,3.785,3.7848,3.7881,3.787,3.7848,3.7847,3.7846,3.7844,0,3.7099,3.7118,3.725,3.7309,3.7326,3.7413,3.7463,3.7536,3.7556,3.7659,3.7683,3.7716,3.7809,3.7827,3.7937,3.7944,3.8088,3.8078,3.8067,3.8067,3.8154,3.8146,3.8434,3.8473,3.8228,3.8231,3.8233,0,3.7222,3.7305,3.7372,3.7425,3.7461,3.7546,3.76,3.7607,3.7664,3.774,3.7804,3.7894,3.7967,3.8117,3.8151,3.8235,3.8227,3.8322,3.824,3.8238,3.823,3.8225,3.8234,3.8339,3.8341,3.8343,3.8345,0,3.7439,3.7445,3.7522,3.7603,3.7667,3.7732,3.7793,3.7837,3.7853,3.7917,3.8012,3.8068,3.818,3.8271,3.8355,3.839,3.8371,3.8371,3.8396,3.8398,3.8389,3.8396,3.8112,3.8364,3.8362,3.8361,3.836,3.8359,3.7594,3.7667,3.7725,3.7812,3.7859,3.7916,3.7987,3.8016,3.8095,3.8186,3.8186,3.829,3.835,3.846,3.8501,3.8582,3.8552,3.8588,3.8598,3.8607,3.8615,3.8375,3.8597,3.8597,3.8596,3.8596,3.8596,0,3.7811,3.7847,3.7927,3.8013,3.8082,3.8056,3.8123,3.8182,3.8273,3.833,3.8402,3.8511,3.8599,3.8639,3.8726,3.8784,3.8777,3.8806,3.8802,3.8811,3.8637,3.8607,3.881,3.881,3.881,3.881,3.881,3.881,3.7932,3.8054,3.8066,3.821,3.8246,3.8347,3.8387,3.844,3.8485,3.8608,3.868,3.8705,3.8756,3.8846,3.8926,3.8936,3.8969,3.9002,3.9008,3.8845,3.8823,3.8803,3.8774,3.9009,3.901,3.9176,3.9177,3.9178]},{"header":{"parameterUnit":"m.s-1","parameterCategory":1,"la1":30.2991,"la2":30.254,"lo1":-89.0895,"lo2":-89.0444,"dy":0.0017,"dx":0.0017,"nx":28,"ny":28,"refTime":"2024-02-03T09:00:00:Z","depth":0,"parameterNumber":3,"parameterNumberName":"V-component_of_WINDS"},"data":[0,0,0,0,0,0,0,0,0,0,0,0,0,0,0,0,0,0,0,0,0,0,0,0,0,0,0,0,0,0,0,0,0,0,0,0,0,0,0,0,0,0,0,0,0,0,0,0,0,0,0,0,0,0,0,0,0,0,2.0942,2.0945,0,2.1145,2.1148,2.115,2.1246,2.1245,2.1245,2.1245,2.1455,2.146,2.1466,0,0,0,0,0,0,0,0,0,0,0,0,0,2.0636,2.0642,2.0942,2.0945,2.0947,2.1145,2.1148,2.1151,2.1246,2.1245,2.1245,2.1245,2.1453,2.146,2.1466,0,0,0,0,0,0,0,0,0,0,0,0,0,2.0797,2.0643,2.0942,2.1019,2.1027,2.1144,2.1148,2.1151,2.1246,2.1245,2.1245,2.1245,2.1451,2.1459,2.1467,2.1524,0,0,2.1493,2.1497,0,0,0,0,0,0,0,0,2.0788,2.0808,2.1005,2.1013,2.1024,2.117,2.1117,2.1276,2.1246,2.1163,2.1245,2.1245,2.136,2.1376,2.1415,2.1534,2.1543,2.1494,2.1499,2.1503,2.1505,0,0,0,0,0,0,0,2.0777,2.08,2.1023,2.1007,2.1019,2.1043,2.1065,2.1148,2.126,2.117,2.1177,2.12,2.1365,2.1406,2.142,2.1546,2.1494,2.1502,2.1507,2.151,2.1718,2.1719,0,0,0,0,0,0,2.0753,2.079,2.1016,2.1029,2.0903,2.1048,2.1074,2.1123,2.126,2.128,2.12,2.1204,2.1392,2.141,2.1428,2.1502,2.1503,2.1511,2.1516,2.1718,2.1718,2.1719,0,0,0,0,0,0,2.0746,2.0772,2.1008,2.0912,2.0943,2.1054,2.1109,2.1127,2.1168,2.1282,2.1303,2.1221,2.1392,2.1416,2.1499,2.1511,2.1515,2.1523,2.1717,2.1718,2.1719,2.1651,0,0,0,0,0,0,2.0737,2.0769,2.0792,2.0911,2.0948,2.1075,2.1109,2.1131,2.1183,2.1189,2.1307,2.1327,2.1394,2.1485,2.1507,2.1522,2.1529,2.1717,2.1718,2.1718,2.1652,2.1649,2.1646,0,0,0,0,0,2.0726,2.0766,2.0793,2.082,2.0979,2.1076,2.1097,2.1173,2.1183,2.1207,2.1279,2.1323,2.1505,2.1493,2.1518,2.1536,2.1717,2.1718,2.1718,2.1654,2.1649,2.1646,0,0,0,0,0,0,2.0648,2.0783,2.0815,2.0895,2.0973,2.1092,2.1125,2.1166,2.1244,2.1247,2.1338,2.1364,2.1438,2.1496,2.1479,2.1597,2.1615,2.1621,2.1557,2.1554,2.1551,2.1536,2.1536,0,0,0,0,0,2.0639,2.0706,2.0821,2.0881,2.0918,2.1014,2.1059,2.111,2.1195,2.1229,2.1308,2.1389,2.1464,2.1512,2.1588,2.166,2.1687,2.1685,2.1681,2.1678,2.1683,2.1723,2.1723,2.1722,2.1722,2.1722,0,0,2.0624,2.0706,2.0743,2.0867,2.0934,2.1,2.1042,2.1111,2.1162,2.124,2.1323,2.1382,2.1478,2.1555,2.1593,2.1606,2.1688,2.1679,2.1676,2.1683,2.1724,2.1724,2.1724,2.1722,2.1722,2.1722,0,0,2.063,2.0699,2.0755,2.082,2.0919,2.0982,2.0995,2.1107,2.1149,2.1233,2.1292,2.1353,2.1482,2.1547,2.1597,2.1622,2.1665,2.1644,2.1628,2.1666,2.1666,2.1667,2.1675,2.1677,2.1648,2.1648,2.1648,0,2.0598,2.0701,2.0779,2.0844,2.0896,2.0968,2.1025,2.1084,2.1203,2.1237,2.1249,2.1409,2.1479,2.1571,2.1577,2.1615,2.1632,2.1632,2.166,2.1661,2.1663,2.1672,2.1674,2.1645,2.1645,2.1645,2.1646,0,2.0657,2.0727,2.076,2.0871,2.0927,2.0988,2.1074,2.1121,2.1166,2.1227,2.131,2.1395,2.1488,2.1514,2.156,2.1612,2.1616,2.1642,2.1662,2.1658,2.1668,2.1672,2.164,2.1641,2.1642,2.1643,0,0,2.0623,2.0773,2.0784,2.0834,2.0947,2.1002,2.1065,2.1155,2.1193,2.1271,2.1326,2.143,2.1454,2.1511,2.1564,2.1597,2.161,2.162,2.1623,2.1614,2.1671,2.1651,2.1653,2.1638,2.1639,2.1639,2.1663,0,2.0644,2.076,2.083,2.0917,2.0982,2.1048,2.1103,2.1177,2.1235,2.1298,2.1362,2.1434,2.1461,2.1495,2.1531,2.1601,2.1622,2.16,2.1689,2.1691,2.1664,2.1659,2.1639,2.1657,2.1667,2.1668,2.1668,0,2.0686,2.076,2.0853,2.0956,2.0985,2.1033,2.1119,2.1179,2.1264,2.1303,2.1364,2.1416,2.1484,2.1497,2.1591,2.1574,2.1614,2.1653,2.1655,2.1668,2.168,2.1671,2.1665,2.1667,2.1675,2.1675,2.1674,0,2.065,2.0774,2.0845,2.0886,2.1008,2.1039,2.1091,2.1176,2.1224,2.1299,2.1331,2.1413,2.1459,2.152,2.1593,2.1596,2.1679,2.1699,2.1714,2.1712,2.173,2.1728,2.173,2.1754,2.1754,2.1754,2.1754,0,2.0667,2.0722,2.0831,2.0875,2.0936,2.1015,2.1074,2.1132,2.1205,2.1261,2.1324,2.1374,2.1467,2.1529,2.1586,2.1654,2.1674,2.1707,2.1722,2.1702,2.1698,2.1731,2.1732,2.1755,2.1755,2.1754,2.1754,0,2.064,2.0715,2.0797,2.0903,2.0931,2.0972,2.1064,2.1108,2.1167,2.1237,2.1257,2.1351,2.1426,2.1504,2.1607,2.1645,2.1712,2.1732,2.1683,2.1691,2.1701,2.1699,2.1725,2.1732,2.1751,2.1751,2.175,0,2.0646,2.0689,2.0799,2.084,2.089,2.0956,2.1004,2.1082,2.113,2.1228,2.126,2.134,2.1408,2.1526,2.1603,2.1681,2.1703,2.1707,2.1716,2.1693,2.1703,2.17,2.1704,2.1704,2.1704,2.1703,2.1703,0,2.0649,2.0683,2.0751,2.083,2.0886,2.0953,2.1022,2.1052,2.1143,2.1194,2.1271,2.1323,2.1426,2.1505,2.1591,2.1645,2.1688,2.1699,2.1706,2.1687,2.1657,2.1673,2.1674,2.1698,2.1699,2.1699,2.1699,2.17,2.0639,2.0679,2.0762,2.0834,2.0893,2.0956,2.1002,2.1065,2.1131,2.122,2.1262,2.1339,2.142,2.154,2.1592,2.1653,2.1666,2.1677,2.168,2.1681,2.1676,2.1645,2.1669,2.1669,2.1669,2.167,2.167,0,2.0645,2.07,2.0766,2.0859,2.0915,2.0949,2.1026,2.1071,2.1138,2.1209,2.1274,2.1361,2.1436,2.1517,2.1596,2.1629,2.1651,2.1648,2.1647,2.1658,2.1661,2.1646,2.1628,2.1628,2.1628,2.1628,2.1628,2.1628,2.0655,2.0724,2.0767,2.0865,2.092,2.0995,2.1036,2.1093,2.115,2.1244,2.1306,2.1358,2.1433,2.1517,2.1587,2.1609,2.1635,2.1626,2.1653,2.1655,2.1658,2.1661,2.1648,2.1631,2.1631,2.1646,2.1646,2.1646]}]]